Home > Weather > Post Falls > Past weeks

Flag for U.S.A. Weather for the Past 2 Weeks in Post Falls, Idaho, U.S.A.

Now
36 °F

Clear.


Feels Like: N/A
Forecast: 31 / 47 °F
Wind: N/A

Location: Coeur d'Alene Weather Reporting System

Current Time: Feb 9, 2016 at 7:47:32 PM

Latest Report: Feb 9, 2016 at 6:55 PM


Visibility: 10 mi

Pressure: 30.23 "Hg (27.84 "Hg at 664m altitude)

Humidity: 75%

Dew point: 28 °F

Location of Post FallsLocation

Historic Weather in Post Falls — Graph

°F

Post Falls Temperature Yesterday

Maximum temperature yesterday: 50 °F (at 1:55 PM)
Minimum temperature yesterday: 30 °F (at 1:35 AM)
Average temperature yesterday: 38 °F

High & Low Weather Summary for the Past Weeks

 TemperatureHumidityPressure
High50 °F (Feb 8, 1:55 PM)100% (Jan 27, 6:35 PM)30.62 "Hg (Jan 27, 6:35 PM)
Low18 °F (Feb 3, 5:15 AM)54% (Feb 8, 12:35 PM)29.56 "Hg (Jan 29, 1:15 PM)
Average34 °F83%30.17 "Hg
* Reported Jan 25 6:15 PM — Feb 9 6:15 PM, Post Falls, Weather by CustomWeather, © 2016

Note: Actual official high and low records may vary slightly from our data, if they occured in-between our weather recording intervals... More about our weather records

Advertising

Post Falls Weather History for the Previous 24 Hours

 ConditionsComfort  
Time TempWeatherWind HumidityBarometerVisibility
6:15 PM
Tue, Feb 9
37 °FClear.3 mph70%30.23 "Hg10 mi
5:35 PM39 °FClear.7 mph70%30.22 "Hg10 mi
4:55 PM45 °FSunny.10 mph61%30.23 "Hg10 mi
4:15 PM46 °FSunny.8 mph66%30.24 "Hg10 mi
3:35 PM50 °FSunny.12 mph58%30.25 "Hg10 mi
2:55 PM50 °FSunny.9 mph62%30.26 "Hg10 mi
2:15 PM48 °FSunny.13 mph66%30.26 "Hg10 mi
1:35 PM48 °FSunny.14 mph62%30.28 "Hg10 mi
12:55 PM46 °FSunny.13 mph66%30.31 "Hg10 mi
12:35 PM46 °FSunny.14 mph66%30.32 "Hg10 mi
12:15 PM45 °FSunny.14 mph71%30.34 "Hg10 mi
11:55 AM45 °FSunny.14 mph71%30.35 "Hg10 mi
11:35 AM43 °FSunny.15 mph76%30.36 "Hg10 mi
11:15 AM43 °FSunny.13 mph71%30.38 "Hg10 mi
10:55 AM39 °FSunny.14 mph81%30.39 "Hg10 mi
10:35 AM37 °FSunny.15 mph87%30.40 "Hg10 mi
10:15 AM36 °FPassing clouds.14 mph87%30.40 "Hg10 mi
9:55 AM36 °FSunny.15 mph87%30.41 "Hg10 mi
9:35 AM36 °FSunny.15 mph87%30.42 "Hg10 mi
9:15 AM36 °FScattered clouds.15 mph87%30.42 "Hg10 mi
8:55 AM34 °FLow clouds.16 mph87%30.43 "Hg10 mi
7:55 AM32 °FLow clouds.17 mph87%30.44 "Hg1 mi
7:35 AM30 °FSunny.12 mph93%30.44 "Hg10 mi
7:15 AM30 °FSunny.13 mph93%30.44 "Hg10 mi
6:35 AM30 °FClear.12 mph93%30.45 "Hg10 mi
6:15 AM30 °FClear.12 mph86%30.45 "Hg10 mi
5:35 AM30 °FClear.12 mph86%30.46 "Hg10 mi
5:15 AM30 °FClear.13 mph93%30.46 "Hg10 mi
4:55 AM32 °FClear.10 mph87%30.47 "Hg10 mi
4:35 AM32 °FClear.9 mph87%30.46 "Hg10 mi
3:55 AM30 °FClear.12 mph93%30.47 "Hg10 mi
3:35 AM30 °FClear.10 mph86%30.47 "Hg10 mi
2:35 AM32 °FClear.10 mph87%30.49 "Hg10 mi
2:15 AM30 °FClear.8 mph86%30.49 "Hg10 mi
1:35 AM30 °FClear.10 mph86%30.49 "Hg10 mi
12:55 AM30 °FClear.9 mph86%30.49 "Hg10 mi
12:15 AM32 °FClear.10 mph80%30.51 "Hg10 mi
11:55 PM
Mon, Feb 8
32 °FClear.10 mph80%30.51 "Hg10 mi
11:35 PM32 °FClear.9 mph87%30.51 "Hg10 mi
11:15 PM34 °FClear.9 mph75%30.51 "Hg10 mi
10:55 PM32 °FClear.7 mph80%30.51 "Hg10 mi
10:15 PM34 °FClear.9 mph81%30.51 "Hg10 mi
9:55 PM34 °FClear.9 mph81%30.51 "Hg10 mi
9:35 PM36 °FClear.10 mph75%30.51 "Hg10 mi
8:55 PM36 °FClear.6 mph81%30.51 "Hg10 mi
8:35 PM36 °FClear.7 mph75%30.51 "Hg10 mi
7:55 PM36 °FClear.9 mph75%30.50 "Hg10 mi
7:35 PM36 °FClear.8 mph81%30.50 "Hg10 mi
7:15 PM37 °FClear.8 mph70%30.50 "Hg10 mi
Weather by CustomWeather, © 2016

See weather overviewHow to use our weather pages